Time,TemperatureF,DewpointF,PressureIn,WindDirection,WindDirectionDegrees,WindSpeedMPH,WindSpeedGustMPH,Humidity,HourlyPrecipIn,Conditions,Clouds,dailyrainin,SoftwareType,DateUTC
2013-10-16 00:01:00,50.4,49.0,30.17,SE,140,0.0,0.0,95,0.00,,,0.00,VWS V14.01,2013-10-16 04:01:00,
2013-10-16 00:06:00,50.5,49.1,30.17,SE,140,0.0,0.0,95,0.00,,,0.00,WUHU216VWC,2013-10-16 04:06:00,
2013-10-16 00:11:00,50.5,49.1,30.17,SE,140,0.0,0.0,95,0.00,,,0.00,WUHU216VWC,2013-10-16 04:11:00,
2013-10-16 00:16:00,50.4,49.0,30.17,SE,140,0.0,0.0,95,0.00,,,0.00,VWS V14.01,2013-10-16 04:16:00,
2013-10-16 00:21:00,50.4,49.0,30.17,SE,140,0.0,0.0,95,0.00,,,0.00,VWS V14.01,2013-10-16 04:21:00,
2013-10-16 00:26:00,50.4,49.0,30.17,SE,140,0.0,0.0,95,0.00,,,0.00,VWS V14.01,2013-10-16 04:26:00,
2013-10-16 00:31:00,50.3,48.9,30.17,SE,140,0.0,0.0,95,0.00,,,0.00,VWS V14.01,2013-10-16 04:31:00,
2013-10-16 00:36:00,50.2,48.5,30.16,SE,140,0.0,0.0,94,0.00,,,0.00,VWS V14.01,2013-10-16 04:36:00,
2013-10-16 00:41:00,50.1,48.4,30.16,SE,140,0.0,0.0,94,0.00,,,0.00,VWS V14.01,2013-10-16 04:41:00,
2013-10-16 00:46:00,50.0,48.3,30.16,SE,140,0.0,0.0,94,0.00,,,0.00,WUHU216VWC,2013-10-16 04:46:00,
2013-10-16 00:51:00,49.9,48.5,30.16,SE,140,0.0,0.0,95,0.00,,,0.00,VWS V14.01,2013-10-16 04:51:00,
2013-10-16 00:56:00,49.8,48.4,30.16,SE,140,0.0,0.0,95,0.00,,,0.00,WUHU216VWC,2013-10-16 04:56:00,
2013-10-16 01:01:00,49.8,48.4,30.16,SE,140,0.0,0.0,95,0.00,,,0.00,WUHU216VWC,2013-10-16 05:01:00,
2013-10-16 01:06:00,49.8,48.4,30.15,SE,140,0.0,0.0,95,0.00,,,0.00,VWS V14.01,2013-10-16 05:06:00,
2013-10-16 01:11:00,49.6,48.2,30.15,SE,140,0.0,0.0,95,0.00,,,0.00,VWS V14.01,2013-10-16 05:11:00,
2013-10-16 01:16:00,49.6,48.2,30.16,SE,140,0.0,0.0,95,0.00,,,0.00,VWS V14.01,2013-10-16 05:16:00,
2013-10-16 01:21:00,49.7,48.3,30.15,SE,140,0.0,0.0,95,0.00,,,0.00,WUHU216VWC,2013-10-16 05:21:00,
2013-10-16 01:26:00,49.5,48.1,30.15,SE,140,0.0,0.0,95,0.00,,,0.00,VWS V14.01,2013-10-16 05:26:00,
2013-10-16 01:31:00,49.2,47.5,30.15,SE,140,0.0,0.0,94,0.00,,,0.00,VWS V14.01,2013-10-16 05:31:00,
2013-10-16 01:36:00,49.1,47.7,30.15,SE,140,0.0,0.0,95,0.00,,,0.00,VWS V14.01,2013-10-16 05:36:00,
2013-10-16 01:41:00,49.1,47.7,30.15,SE,140,0.0,0.0,95,0.00,,,0.00,WUHU216VWC,2013-10-16 05:41:00,
2013-10-16 01:46:00,49.2,47.8,30.15,SE,140,0.0,0.0,95,0.00,,,0.00,WUHU216VWC,2013-10-16 05:46:00,
2013-10-16 01:51:00,49.1,47.7,30.15,SE,140,0.0,0.0,95,0.00,,,0.00,VWS V14.01,2013-10-16 05:51:00,
2013-10-16 01:56:00,48.8,47.2,30.14,SE,140,0.0,0.0,94,0.00,,,0.00,VWS V14.01,2013-10-16 05:56:00,
2013-10-16 02:01:00,48.6,47.2,30.14,SE,140,0.0,0.0,95,0.00,,,0.00,VWS V14.01,2013-10-16 06:01:00,
2013-10-16 02:06:00,48.4,47.0,30.14,SE,140,0.0,0.0,95,0.00,,,0.00,VWS V14.01,2013-10-16 06:06:00,
2013-10-16 02:11:00,48.4,47.0,30.14,SE,140,0.0,0.0,95,0.00,,,0.00,VWS V14.01,2013-10-16 06:11:00,
2013-10-16 02:16:00,48.5,47.1,30.14,SE,140,0.0,0.0,95,0.00,,,0.00,WUHU216VWC,2013-10-16 06:16:00,
2013-10-16 02:21:00,48.5,47.1,30.14,SE,140,0.0,0.0,95,0.00,,,0.00,VWS V14.01,2013-10-16 06:21:00,
2013-10-16 02:26:00,48.6,47.2,30.14,SE,140,0.0,0.0,95,0.00,,,0.00,WUHU216VWC,2013-10-16 06:26:00,
2013-10-16 02:31:00,48.5,47.1,30.14,SE,140,0.0,0.0,95,0.00,,,0.00,WUHU216VWC,2013-10-16 06:31:00,
2013-10-16 02:36:00,48.6,47.2,30.14,SE,140,0.0,0.0,95,0.00,,,0.00,VWS V14.01,2013-10-16 06:36:00,
2013-10-16 02:41:00,48.7,47.6,30.14,SE,140,0.0,0.0,96,0.00,,,0.00,WUHU216VWC,2013-10-16 06:41:00,
2013-10-16 02:46:00,49.0,47.9,30.15,SE,140,0.0,0.0,96,0.00,,,0.00,WUHU216VWC,2013-10-16 06:46:00,
2013-10-16 02:51:00,49.3,48.2,30.15,SE,140,0.0,0.0,96,0.00,,,0.00,WUHU216VWC,2013-10-16 06:51:00,
2013-10-16 02:56:00,49.6,48.5,30.15,SE,140,0.0,0.0,96,0.00,,,0.00,VWS V14.01,2013-10-16 06:56:00,
2013-10-16 03:01:00,49.7,48.6,30.15,SE,140,0.0,0.0,96,0.00,,,0.00,VWS V14.01,2013-10-16 07:01:00,
2013-10-16 03:06:00,49.8,48.7,30.15,SE,140,0.0,0.0,96,0.00,,,0.00,VWS V14.01,2013-10-16 07:06:00,
2013-10-16 03:11:00,49.9,48.8,30.14,SE,140,0.0,0.0,96,0.00,,,0.00,VWS V14.01,2013-10-16 07:11:00,
2013-10-16 03:16:00,50.1,49.0,30.15,SE,140,0.0,0.0,96,0.00,,,0.00,VWS V14.01,2013-10-16 07:16:00,
2013-10-16 03:21:00,50.2,49.1,30.15,SE,140,0.0,0.0,96,0.00,,,0.00,VWS V14.01,2013-10-16 07:21:00,
2013-10-16 03:26:00,50.3,49.2,30.15,SE,140,0.0,0.0,96,0.00,,,0.00,WUHU216VWC,2013-10-16 07:26:00,
2013-10-16 03:31:00,50.3,49.2,30.14,SE,140,0.0,0.0,96,0.00,,,0.00,VWS V14.01,2013-10-16 07:31:00,
2013-10-16 03:36:00,50.3,49.2,30.15,SE,140,0.0,0.0,96,0.00,,,0.00,VWS V14.01,2013-10-16 07:36:00,
2013-10-16 03:41:00,50.3,49.2,30.15,SE,140,0.0,0.0,96,0.00,,,0.00,VWS V14.01,2013-10-16 07:41:00,
2013-10-16 03:46:00,50.3,49.2,30.15,SE,140,0.0,0.0,96,0.00,,,0.00,VWS V14.01,2013-10-16 07:46:00,
2013-10-16 03:51:00,50.4,49.3,30.15,SE,140,0.0,0.0,96,0.00,,,0.00,WUHU216VWC,2013-10-16 07:51:00,
2013-10-16 03:56:00,50.5,49.4,30.15,SE,140,0.0,0.0,96,0.00,,,0.00,VWS V14.01,2013-10-16 07:56:00,
2013-10-16 04:01:00,50.6,49.5,30.15,SE,140,0.0,0.0,96,0.00,,,0.00,VWS V14.01,2013-10-16 08:01:00,
2013-10-16 04:06:00,50.6,49.5,30.15,SE,140,0.0,0.0,96,0.00,,,0.00,VWS V14.01,2013-10-16 08:06:00,
2013-10-16 04:11:00,50.6,49.5,30.15,SE,140,0.0,0.0,96,0.00,,,0.00,VWS V14.01,2013-10-16 08:11:00,
2013-10-16 04:16:00,50.6,49.5,30.15,SE,140,0.0,0.0,96,0.00,,,0.00,VWS V14.01,2013-10-16 08:16:00,
2013-10-16 04:21:00,50.6,49.5,30.14,SE,140,0.0,0.0,96,0.00,,,0.00,WUHU216VWC,2013-10-16 08:21:00,
2013-10-16 04:26:00,50.5,49.4,30.14,SE,140,0.0,0.0,96,0.00,,,0.00,VWS V14.01,2013-10-16 08:26:00,
2013-10-16 04:31:00,50.5,49.4,30.14,SE,140,0.0,0.0,96,0.00,,,0.00,VWS V14.01,2013-10-16 08:31:00,
2013-10-16 04:36:00,50.3,49.2,30.14,SE,140,0.0,0.0,96,0.00,,,0.00,WUHU216VWC,2013-10-16 08:36:00,
2013-10-16 04:41:00,50.2,49.1,30.14,SE,140,0.0,0.0,96,0.00,,,0.00,WUHU216VWC,2013-10-16 08:41:00,
2013-10-16 04:46:00,50.0,48.6,30.15,SE,140,0.0,0.0,95,0.00,,,0.00,VWS V14.01,2013-10-16 08:46:00,
2013-10-16 04:51:00,49.8,48.4,30.14,SE,140,0.0,0.0,95,0.00,,,0.00,WUHU216VWC,2013-10-16 08:51:00,
2013-10-16 04:56:00,49.7,48.3,30.14,SE,140,0.0,0.0,95,0.00,,,0.00,VWS V14.01,2013-10-16 08:56:00,
2013-10-16 05:01:00,49.6,48.2,30.14,SE,140,0.0,0.0,95,0.00,,,0.00,VWS V14.01,2013-10-16 09:01:00,
2013-10-16 05:06:00,49.5,48.1,30.14,SE,140,0.0,0.0,95,0.00,,,0.00,WUHU216VWC,2013-10-16 09:06:00,
2013-10-16 05:11:00,49.4,48.3,30.14,SE,140,0.0,0.0,96,0.00,,,0.00,VWS V14.01,2013-10-16 09:11:00,
2013-10-16 05:16:00,49.4,48.3,30.13,SE,140,0.0,0.0,96,0.00,,,0.00,VWS V14.01,2013-10-16 09:16:00,
2013-10-16 05:21:00,49.4,48.3,30.13,SE,140,0.0,0.0,96,0.00,,,0.00,WUHU216VWC,2013-10-16 09:21:00,
2013-10-16 05:26:00,49.4,48.3,30.12,SE,140,0.0,0.0,96,0.00,,,0.00,VWS V14.01,2013-10-16 09:26:00,
2013-10-16 05:31:00,49.3,48.2,30.12,SE,140,0.0,0.0,96,0.00,,,0.00,VWS V14.01,2013-10-16 09:31:00,
2013-10-16 05:36:00,49.2,48.1,30.12,SE,140,0.0,0.0,96,0.00,,,0.00,VWS V14.01,2013-10-16 09:36:00,
2013-10-16 05:41:00,49.3,48.2,30.12,SE,140,0.0,0.0,96,0.00,,,0.00,VWS V14.01,2013-10-16 09:41:00,
2013-10-16 05:46:00,49.4,48.3,30.13,SE,140,0.0,0.0,96,0.00,,,0.00,VWS V14.01,2013-10-16 09:46:00,
2013-10-16 05:51:00,49.4,48.3,30.12,SE,140,0.0,0.0,96,0.00,,,0.00,VWS V14.01,2013-10-16 09:51:00,
2013-10-16 05:56:00,49.5,48.4,30.13,SE,140,0.0,0.0,96,0.00,,,0.00,WUHU216VWC,2013-10-16 09:56:00,
2013-10-16 06:01:00,49.6,48.5,30.12,SE,140,0.0,0.0,96,0.00,,,0.00,VWS V14.01,2013-10-16 10:01:00,
2013-10-16 06:06:00,49.6,48.5,30.13,SE,140,0.0,0.0,96,0.00,,,0.00,VWS V14.01,2013-10-16 10:06:00,
2013-10-16 06:11:00,49.7,48.6,30.13,SE,140,0.0,0.0,96,0.00,,,0.00,VWS V14.01,2013-10-16 10:11:00,
2013-10-16 06:16:00,49.8,48.7,30.12,SE,140,0.0,0.0,96,0.00,,,0.00,VWS V14.01,2013-10-16 10:16:00,
2013-10-16 06:21:00,49.8,48.7,30.12,SE,140,0.0,0.0,96,0.00,,,0.00,WUHU216VWC,2013-10-16 10:21:00,
2013-10-16 06:26:00,49.9,48.8,30.12,SE,140,0.0,0.0,96,0.00,,,0.00,VWS V14.01,2013-10-16 10:26:00,
2013-10-16 06:31:00,50.0,49.2,30.12,SE,140,0.0,0.0,97,0.00,,,0.00,VWS V14.01,2013-10-16 10:31:00,
2013-10-16 06:36:00,50.0,48.9,30.12,SE,140,0.0,0.0,96,0.00,,,0.00,VWS V14.01,2013-10-16 10:36:00,
2013-10-16 06:41:00,50.1,49.0,30.12,SE,140,0.0,0.0,96,0.00,,,0.00,WUHU216VWC,2013-10-16 10:41:00,
2013-10-16 06:46:00,50.3,49.5,30.12,SE,140,0.0,0.0,97,0.00,,,0.00,WUHU216VWC,2013-10-16 10:46:00,
2013-10-16 06:51:00,50.4,49.6,30.12,SE,140,0.0,0.0,97,0.00,,,0.00,WUHU216VWC,2013-10-16 10:51:00,
2013-10-16 06:56:00,50.4,49.6,30.12,SE,140,0.0,0.0,97,0.00,,,0.00,VWS V14.01,2013-10-16 10:56:00,
2013-10-16 07:01:00,50.5,49.7,30.12,South,171,0.0,1.0,97,0.00,,,0.00,VWS V14.01,2013-10-16 11:01:00,
2013-10-16 07:06:00,50.7,49.9,30.12,South,171,0.0,0.0,97,0.00,,,0.00,VWS V14.01,2013-10-16 11:06:00,
2013-10-16 07:11:00,50.7,49.9,30.13,South,171,0.0,1.0,97,0.00,,,0.00,VWS V14.01,2013-10-16 11:11:00,
2013-10-16 07:16:00,50.8,50.0,30.12,South,171,0.0,1.0,97,0.00,,,0.00,WUHU216VWC,2013-10-16 11:16:00,
2013-10-16 07:21:00,50.9,50.1,30.12,South,171,0.0,0.0,97,0.00,,,0.00,VWS V14.01,2013-10-16 11:21:00,
2013-10-16 07:26:00,50.9,50.1,30.12,South,171,0.0,0.0,97,0.00,,,0.00,WUHU216VWC,2013-10-16 11:26:00,
2013-10-16 07:31:00,50.9,50.1,30.12,South,171,0.0,0.0,97,0.00,,,0.00,WUHU216VWC,2013-10-16 11:31:00,
2013-10-16 07:36:00,51.0,50.2,30.12,South,171,0.0,0.0,97,0.00,,,0.00,VWS V14.01,2013-10-16 11:36:00,
2013-10-16 07:41:00,51.0,50.2,30.12,South,171,0.0,0.0,97,0.00,,,0.00,VWS V14.01,2013-10-16 11:41:00,
2013-10-16 07:46:00,51.0,50.2,30.11,South,171,0.0,0.0,97,0.00,,,0.00,VWS V14.01,2013-10-16 11:46:00,
2013-10-16 07:51:00,51.1,50.3,30.12,South,171,0.0,0.0,97,0.00,,,0.00,VWS V14.01,2013-10-16 11:51:00,
2013-10-16 07:56:00,51.2,50.4,30.12,South,171,0.0,0.0,97,0.00,,,0.00,VWS V14.01,2013-10-16 11:56:00,
2013-10-16 08:01:00,51.3,50.5,30.12,South,171,0.0,0.0,97,0.00,,,0.00,WUHU216VWC,2013-10-16 12:01:00,
2013-10-16 08:06:00,51.4,50.6,30.12,South,171,0.0,0.0,97,0.00,,,0.00,WUHU216VWC,2013-10-16 12:06:00,
2013-10-16 08:11:00,51.5,50.7,30.12,South,171,0.0,0.0,97,0.00,,BKN006,0.00,VWS V14.01,2013-10-16 12:11:00,
2013-10-16 08:16:00,51.6,50.8,30.11,South,171,0.0,0.0,97,0.00,,,0.00,WUHU216VWC,2013-10-16 12:16:00,
2013-10-16 08:21:00,51.7,50.9,30.11,South,171,0.0,0.0,97,0.00,,BKN006,0.00,VWS V14.01,2013-10-16 12:21:00,
2013-10-16 08:25:00,51.9,51.1,30.11,South,171,0.0,0.0,97,0.00,,,0.00,WUHU216VWC,2013-10-16 12:25:00,
2013-10-16 08:30:00,52.0,51.2,30.12,South,171,0.0,0.0,97,0.00,,BKN006,0.00,VWS V14.01,2013-10-16 12:30:00,
2013-10-16 08:35:00,52.2,51.4,30.11,South,171,0.0,0.0,97,0.00,,BKN006,0.00,VWS V14.01,2013-10-16 12:35:00,
2013-10-16 08:40:00,52.4,51.6,30.11,South,171,0.0,0.0,97,0.00,,BKN006,0.00,VWS V14.01,2013-10-16 12:40:00,
2013-10-16 08:45:00,52.6,51.8,30.11,South,171,0.0,0.0,97,0.00,,,0.00,WUHU216VWC,2013-10-16 12:45:00,
2013-10-16 08:50:00,52.7,51.9,30.12,South,171,0.0,0.0,97,0.00,,BKN006,0.00,VWS V14.01,2013-10-16 12:50:00,
2013-10-16 08:55:00,52.8,52.0,30.11,SE,143,0.0,2.0,97,0.00,,BKN006,0.00,VWS V14.01,2013-10-16 12:55:00,
2013-10-16 09:00:00,52.8,52.0,30.11,SE,142,0.0,2.0,97,0.00,,,0.00,WUHU216VWC,2013-10-16 13:00:00,
2013-10-16 09:05:00,52.8,52.0,30.11,SE,142,0.0,2.0,97,0.00,,,0.00,WUHU216VWC,2013-10-16 13:05:00,
2013-10-16 09:10:00,52.9,52.1,30.11,SE,142,0.0,0.0,97,0.00,,OVC006,0.00,VWS V14.01,2013-10-16 13:10:00,
2013-10-16 09:15:00,52.9,51.8,30.11,SE,142,0.0,0.0,96,0.00,,OVC006,0.00,VWS V14.01,2013-10-16 13:15:00,
2013-10-16 09:20:00,53.1,52.0,30.11,SE,142,0.0,0.0,96,0.00,,,0.00,WUHU216VWC,2013-10-16 13:20:00,
2013-10-16 09:25:00,53.2,52.1,30.11,SE,142,0.0,0.0,96,0.00,,OVC006,0.00,VWS V14.01,2013-10-16 13:25:00,
2013-10-16 09:30:00,53.4,52.3,30.11,SE,142,0.0,0.0,96,0.00,,OVC006,0.00,VWS V14.01,2013-10-16 13:30:00,
2013-10-16 09:35:00,53.5,52.1,30.11,SE,142,0.0,0.0,95,0.00,,,0.00,WUHU216VWC,2013-10-16 13:35:00,
2013-10-16 09:40:00,53.6,52.2,30.11,SE,142,0.0,1.0,95,0.00,,OVC006,0.00,VWS V14.01,2013-10-16 13:40:00,
2013-10-16 09:45:00,53.8,52.4,30.10,SE,142,0.0,0.0,95,0.00,,OVC006,0.00,VWS V14.01,2013-10-16 13:45:00,
2013-10-16 09:50:00,54.0,52.3,30.10,SE,142,0.0,1.0,94,0.00,,OVC006,0.00,VWS V14.01,2013-10-16 13:50:00,
2013-10-16 09:55:00,54.1,52.1,30.11,SE,142,0.0,0.0,93,0.00,,OVC006,0.00,VWS V14.01,2013-10-16 13:55:00,
2013-10-16 10:00:00,54.2,52.2,30.11,SE,142,0.0,1.0,93,0.00,,,0.00,WUHU216VWC,2013-10-16 14:00:00,
2013-10-16 10:05:00,54.3,52.3,30.10,SE,142,0.0,0.0,93,0.00,,OVC014,0.00,VWS V14.01,2013-10-16 14:05:00,
2013-10-16 10:10:00,54.5,52.2,30.11,SE,142,0.0,0.0,92,0.00,,OVC014,0.00,VWS V14.01,2013-10-16 14:10:00,
2013-10-16 10:15:00,54.6,52.0,30.10,East,90,0.0,2.0,91,0.00,,,0.00,WUHU216VWC,2013-10-16 14:15:00,
2013-10-16 10:20:00,54.7,51.8,30.10,East,80,0.0,2.0,90,0.00,,,0.00,WUHU216VWC,2013-10-16 14:20:00,
2013-10-16 10:25:00,54.8,51.6,30.10,East,80,0.0,2.0,89,0.00,,,0.00,WUHU216VWC,2013-10-16 14:25:00,
2013-10-16 10:30:00,55.0,51.8,30.10,East,91,0.0,0.0,89,0.00,,OVC014,0.00,VWS V14.01,2013-10-16 14:30:00,
2013-10-16 10:35:00,55.3,52.1,30.09,East,91,0.0,0.0,89,0.00,,,0.00,WUHU216VWC,2013-10-16 14:35:00,
2013-10-16 10:40:00,55.6,52.1,30.10,East,91,0.0,1.0,88,0.00,,,0.00,WUHU216VWC,2013-10-16 14:40:00,
2013-10-16 10:45:00,55.7,51.6,30.09,East,91,0.0,1.0,86,0.00,,OVC014,0.00,VWS V14.01,2013-10-16 14:45:00,
2013-10-16 10:50:00,55.7,51.3,30.10,East,91,0.0,1.0,85,0.00,,,0.00,WUHU216VWC,2013-10-16 14:50:00,
2013-10-16 10:55:00,55.9,51.5,30.09,East,91,0.0,0.0,85,0.00,,OVC014,0.00,VWS V14.01,2013-10-16 14:55:00,
2013-10-16 11:00:00,56.0,51.2,30.09,East,91,0.0,0.0,84,0.00,,OVC017,0.00,VWS V14.01,2013-10-16 15:00:00,
2013-10-16 11:05:00,56.3,51.9,30.09,East,91,0.0,0.0,85,0.00,,,0.00,WUHU216VWC,2013-10-16 15:05:00,
2013-10-16 11:10:00,56.7,52.2,30.09,East,91,0.0,0.0,85,0.00,,OVC017,0.00,VWS V14.01,2013-10-16 15:10:00,
2013-10-16 11:15:00,57.0,51.9,30.08,East,91,0.0,0.0,83,0.00,,OVC017,0.00,VWS V14.01,2013-10-16 15:15:00,
2013-10-16 11:20:00,57.2,51.1,30.08,ESE,114,0.0,0.0,80,0.00,,OVC017,0.00,VWS V14.01,2013-10-16 15:20:00,
2013-10-16 11:25:00,57.3,51.2,30.08,ESE,123,0.0,2.0,80,0.00,,,0.00,WUHU216VWC,2013-10-16 15:25:00,
2013-10-16 11:30:00,57.6,51.8,30.07,ESE,123,0.0,2.0,81,0.00,,,0.00,WUHU216VWC,2013-10-16 15:30:00,
2013-10-16 11:35:00,57.8,51.7,30.07,ESE,123,0.0,0.0,80,0.00,,OVC017,0.00,VWS V14.01,2013-10-16 15:35:00,
2013-10-16 11:40:00,57.9,51.8,30.07,East,88,0.0,2.0,80,0.00,,,0.00,WUHU216VWC,2013-10-16 15:40:00,
2013-10-16 11:45:00,57.8,51.7,30.06,East,88,0.0,2.0,80,0.00,,,0.00,WUHU216VWC,2013-10-16 15:45:00,
2013-10-16 11:50:00,57.7,51.9,30.06,East,88,1.0,1.0,81,0.00,,OVC017,0.00,VWS V14.01,2013-10-16 15:50:00,
2013-10-16 11:55:00,57.6,51.1,30.06,East,88,0.0,1.0,79,0.00,,,0.00,WUHU216VWC,2013-10-16 15:55:00,
2013-10-16 12:00:00,57.6,51.5,30.06,East,88,0.0,1.0,80,0.00,,,0.00,WUHU216VWC,2013-10-16 16:00:00,
2013-10-16 12:05:00,57.7,51.6,30.06,East,101,0.0,0.0,80,0.00,,BKN100,0.00,VWS V14.01,2013-10-16 16:05:00,
2013-10-16 12:10:00,57.8,51.3,30.05,East,101,0.0,0.0,79,0.00,,BKN100,0.00,VWS V14.01,2013-10-16 16:10:00,
2013-10-16 12:15:00,57.8,51.3,30.05,East,101,0.0,1.0,79,0.00,,BKN100,0.00,VWS V14.01,2013-10-16 16:15:00,
2013-10-16 12:20:00,58.0,51.5,30.05,East,101,0.0,0.0,79,0.00,,BKN100,0.00,VWS V14.01,2013-10-16 16:20:00,
2013-10-16 12:25:00,58.2,51.4,30.05,East,101,0.0,0.0,78,0.00,,BKN100,0.00,VWS V14.01,2013-10-16 16:25:00,
2013-10-16 12:30:00,58.3,51.5,30.04,East,92,0.0,1.0,78,0.00,,,0.00,WUHU216VWC,2013-10-16 16:30:00,
2013-10-16 12:35:00,58.4,51.6,30.04,East,92,0.0,0.0,78,0.00,,BKN100,0.00,VWS V14.01,2013-10-16 16:35:00,
2013-10-16 12:40:00,58.4,51.2,30.04,East,92,0.0,0.0,77,0.00,,BKN100,0.00,VWS V14.01,2013-10-16 16:40:00,
2013-10-16 12:45:00,58.5,51.0,30.04,East,92,0.0,1.0,76,0.00,,,0.00,WUHU216VWC,2013-10-16 16:45:00,
2013-10-16 12:50:00,58.7,51.5,30.03,East,96,0.0,0.0,77,0.00,,BKN100,0.00,VWS V14.01,2013-10-16 16:50:00,
2013-10-16 12:55:00,59.1,51.6,30.03,East,96,0.0,1.0,76,0.00,,,0.00,WUHU216VWC,2013-10-16 16:55:00,
2013-10-16 13:00:00,59.3,51.4,30.03,East,91,0.0,1.0,75,0.00,,,0.00,WUHU216VWC,2013-10-16 17:00:00,
2013-10-16 13:05:00,59.4,51.1,30.03,East,94,0.0,0.0,74,0.00,,CLR,0.00,VWS V14.01,2013-10-16 17:05:00,
2013-10-16 13:10:00,59.6,51.3,30.03,East,94,0.0,0.0,74,0.00,,,0.00,WUHU216VWC,2013-10-16 17:10:00,
2013-10-16 13:15:00,59.8,51.5,30.02,East,94,1.0,1.0,74,0.00,,CLR,0.00,VWS V14.01,2013-10-16 17:15:00,
2013-10-16 13:20:00,60.0,52.1,30.02,East,94,0.0,1.0,75,0.00,,,0.00,WUHU216VWC,2013-10-16 17:20:00,
2013-10-16 13:25:00,60.0,51.7,30.02,East,94,0.0,0.0,74,0.00,,CLR,0.00,VWS V14.01,2013-10-16 17:25:00,
2013-10-16 13:30:00,60.1,51.4,30.01,East,94,0.0,0.0,73,0.00,,,0.00,WUHU216VWC,2013-10-16 17:30:00,
2013-10-16 13:35:00,60.1,51.8,30.01,East,94,0.0,1.0,74,0.00,,CLR,0.00,VWS V14.01,2013-10-16 17:35:00,
2013-10-16 13:40:00,60.1,51.8,30.01,East,94,0.0,1.0,74,0.00,,,0.00,WUHU216VWC,2013-10-16 17:40:00,
2013-10-16 13:45:00,60.2,51.5,30.00,East,94,0.0,1.0,73,0.00,,,0.00,WUHU216VWC,2013-10-16 17:45:00,
2013-10-16 13:50:00,60.3,51.2,30.00,East,95,0.0,0.0,72,0.00,,CLR,0.00,VWS V14.01,2013-10-16 17:50:00,
2013-10-16 13:55:00,60.3,51.6,30.00,East,94,0.0,0.0,73,0.00,,CLR,0.00,VWS V14.01,2013-10-16 17:55:00,
2013-10-16 14:00:00,60.4,51.7,30.00,East,94,0.0,1.0,73,0.00,,,0.00,WUHU216VWC,2013-10-16 18:00:00,
2013-10-16 14:05:00,60.5,52.5,30.00,East,95,0.0,1.0,75,0.00,,,0.00,WUHU216VWC,2013-10-16 18:05:00,
2013-10-16 14:10:00,60.5,51.1,30.01,East,95,0.0,1.0,71,0.00,,,0.00,WUHU216VWC,2013-10-16 18:10:00,
2013-10-16 14:15:00,60.4,51.3,30.00,East,95,0.0,0.0,72,0.00,,FEW040,0.00,VWS V14.01,2013-10-16 18:15:00,
2013-10-16 14:20:00,60.3,52.0,30.00,East,95,0.0,0.0,74,0.00,,FEW040,0.00,VWS V14.01,2013-10-16 18:20:00,
2013-10-16 14:25:00,60.3,51.6,30.00,East,95,0.0,0.0,73,0.00,,,0.00,WUHU216VWC,2013-10-16 18:25:00,
2013-10-16 14:27:00,60.3,51.2,30.01,East,95,0.0,0.0,72,0.00,,FEW040,0.00,VWS V14.01,2013-10-16 18:27:00,
2013-10-16 14:32:00,60.3,51.2,30.01,East,95,0.0,0.0,72,0.00,,,0.00,WUHU216VWC,2013-10-16 18:32:00,
2013-10-16 14:37:00,60.4,52.1,30.00,East,95,0.0,0.0,74,0.00,,FEW040,0.00,VWS V14.01,2013-10-16 18:37:00,
2013-10-16 14:42:00,60.4,51.7,30.00,East,95,0.0,0.0,73,0.00,,FEW040,0.00,VWS V14.01,2013-10-16 18:42:00,
2013-10-16 14:47:00,60.4,52.8,29.99,East,95,0.0,0.0,76,0.00,,FEW040,0.00,VWS V14.01,2013-10-16 18:47:00,
2013-10-16 14:52:00,60.3,51.2,30.00,East,95,0.0,0.0,72,0.00,,FEW040,0.00,VWS V14.01,2013-10-16 18:52:00,
2013-10-16 14:57:00,60.2,51.5,29.99,East,95,0.0,0.0,73,0.00,,FEW040,0.00,VWS V14.01,2013-10-16 18:57:00,
2013-10-16 15:02:00,60.1,52.2,29.99,East,95,0.0,0.0,75,0.00,,,0.00,WUHU216VWC,2013-10-16 19:02:00,
2013-10-16 15:07:00,60.1,51.8,29.99,East,95,0.0,0.0,74,0.00,,CLR,0.00,VWS V14.01,2013-10-16 19:07:00,
2013-10-16 15:12:00,60.0,52.8,29.99,East,95,0.0,0.0,77,0.00,,CLR,0.00,VWS V14.01,2013-10-16 19:12:00,
2013-10-16 15:17:00,60.0,51.7,29.99,East,95,0.0,0.0,74,0.00,,CLR,0.00,VWS V14.01,2013-10-16 19:17:00,
2013-10-16 15:22:00,59.9,52.7,29.99,East,95,0.0,0.0,77,0.00,,CLR,0.00,VWS V14.01,2013-10-16 19:22:00,
2013-10-16 15:27:00,59.8,52.2,29.99,East,95,0.0,0.0,76,0.00,,,0.00,WUHU216VWC,2013-10-16 19:27:00,
2013-10-16 15:32:00,59.8,52.6,29.99,East,95,0.0,0.0,77,0.00,,CLR,0.00,VWS V14.01,2013-10-16 19:32:00,
2013-10-16 15:37:00,59.7,51.4,30.00,East,95,0.0,0.0,74,0.00,,CLR,0.00,VWS V14.01,2013-10-16 19:37:00,
2013-10-16 15:42:00,59.6,51.7,30.00,East,95,0.0,0.0,75,0.00,,,0.00,WUHU216VWC,2013-10-16 19:42:00,
2013-10-16 15:47:00,59.7,52.5,30.00,East,95,0.0,0.0,77,0.00,,,0.00,WUHU216VWC,2013-10-16 19:47:00,
2013-10-16 15:51:00,59.6,52.4,29.99,East,95,0.0,1.0,77,0.00,,,0.00,WUHU216VWC,2013-10-16 19:51:00,
2013-10-16 15:56:00,59.4,51.8,29.99,East,95,0.0,0.0,76,0.00,,CLR,0.00,VWS V14.01,2013-10-16 19:56:00,
2013-10-16 16:01:00,59.3,52.1,29.98,East,95,0.0,1.0,77,0.00,,,0.00,WUHU216VWC,2013-10-16 20:01:00,
2013-10-16 16:06:00,59.3,52.1,29.98,East,95,0.0,0.0,77,0.00,,FEW033,0.00,VWS V14.01,2013-10-16 20:06:00,
2013-10-16 16:11:00,59.2,52.0,29.98,East,95,0.0,0.0,77,0.00,,FEW033,0.00,VWS V14.01,2013-10-16 20:11:00,
2013-10-16 16:16:00,59.2,52.4,29.97,East,95,0.0,0.0,78,0.00,,,0.00,WUHU216VWC,2013-10-16 20:16:00,
2013-10-16 16:21:00,59.2,52.7,29.97,East,95,0.0,0.0,79,0.00,,,0.00,WUHU216VWC,2013-10-16 20:21:00,
2013-10-16 16:26:00,59.1,52.6,29.98,East,95,0.0,0.0,79,0.00,,FEW033,0.00,VWS V14.01,2013-10-16 20:26:00,
2013-10-16 16:31:00,59.0,52.2,29.98,East,95,0.0,0.0,78,0.00,,FEW033,0.00,VWS V14.01,2013-10-16 20:31:00,
2013-10-16 16:36:00,58.8,52.3,29.97,East,95,0.0,0.0,79,0.00,,FEW033,0.00,VWS V14.01,2013-10-16 20:36:00,
2013-10-16 16:41:00,58.6,52.8,29.97,East,95,0.0,0.0,81,0.00,,,0.00,WUHU216VWC,2013-10-16 20:41:00,
2013-10-16 16:46:00,58.5,52.7,29.97,East,95,0.0,0.0,81,0.00,,,0.00,WUHU216VWC,2013-10-16 20:46:00,
2013-10-16 16:51:00,58.3,52.5,29.98,East,95,0.0,0.0,81,0.00,,FEW033,0.00,VWS V14.01,2013-10-16 20:51:00,
2013-10-16 16:56:00,58.1,52.6,29.97,East,95,0.0,0.0,82,0.00,,,0.00,WUHU216VWC,2013-10-16 20:56:00,
2013-10-16 17:01:00,58.0,52.5,29.96,East,95,0.0,0.0,82,0.00,,,0.00,WUHU216VWC,2013-10-16 21:01:00,
2013-10-16 17:06:00,57.8,52.7,29.97,East,95,0.0,0.0,83,0.00,,FEW030,0.00,VWS V14.01,2013-10-16 21:06:00,
2013-10-16 17:11:00,57.7,52.9,29.97,East,95,0.0,0.0,84,0.00,,FEW030,0.00,VWS V14.01,2013-10-16 21:11:00,
2013-10-16 17:16:00,57.5,53.0,29.96,East,95,0.0,0.0,85,0.00,,,0.00,WUHU216VWC,2013-10-16 21:16:00,
2013-10-16 17:21:00,57.3,52.8,29.96,East,95,0.0,0.0,85,0.00,,FEW030,0.00,VWS V14.01,2013-10-16 21:21:00,
2013-10-16 17:26:00,57.1,52.6,29.96,East,95,0.0,0.0,85,0.00,,FEW030,0.00,VWS V14.01,2013-10-16 21:26:00,
2013-10-16 17:31:00,56.9,52.4,29.95,East,95,0.0,0.0,85,0.00,,,0.00,WUHU216VWC,2013-10-16 21:31:00,
2013-10-16 17:36:00,56.7,52.6,29.96,East,95,0.0,0.0,86,0.00,,FEW030,0.00,VWS V14.01,2013-10-16 21:36:00,
2013-10-16 17:41:00,56.6,52.5,29.97,East,95,0.0,0.0,86,0.00,,FEW030,0.00,VWS V14.01,2013-10-16 21:41:00,
2013-10-16 17:46:00,56.4,52.3,29.96,East,95,0.0,0.0,86,0.00,,,0.00,WUHU216VWC,2013-10-16 21:46:00,
2013-10-16 17:51:00,56.4,52.3,29.97,East,95,0.0,0.0,86,0.00,,FEW030,0.00,VWS V14.01,2013-10-16 21:51:00,
2013-10-16 17:56:00,56.3,52.2,29.96,East,95,0.0,1.0,86,0.00,,,0.00,WUHU216VWC,2013-10-16 21:56:00,
2013-10-16 18:01:00,56.1,52.3,29.96,East,95,0.0,0.0,87,0.00,,CLR,0.00,VWS V14.01,2013-10-16 22:01:00,
2013-10-16 18:06:00,55.9,52.1,29.97,East,96,0.0,1.0,87,0.00,,CLR,0.00,VWS V14.01,2013-10-16 22:06:00,
2013-10-16 18:11:00,55.8,52.0,29.98,West,259,0.0,2.0,87,0.00,,CLR,0.00,VWS V14.01,2013-10-16 22:11:00,
2013-10-16 18:16:00,55.7,52.2,29.97,West,261,0.0,0.0,88,0.00,,CLR,0.00,VWS V14.01,2013-10-16 22:16:00,
2013-10-16 18:21:00,55.6,52.1,29.97,West,261,0.0,2.0,88,0.00,,,0.00,WUHU216VWC,2013-10-16 22:21:00,
2013-10-16 18:26:00,55.5,52.0,29.97,West,261,0.0,0.0,88,0.00,,CLR,0.00,VWS V14.01,2013-10-16 22:26:00,
2013-10-16 18:31:00,55.3,51.8,29.97,West,261,0.0,0.0,88,0.00,,CLR,0.00,VWS V14.01,2013-10-16 22:31:00,
2013-10-16 18:36:00,55.1,51.9,29.96,West,261,0.0,0.0,89,0.00,,CLR,0.00,VWS V14.01,2013-10-16 22:36:00,
2013-10-16 18:41:00,54.9,51.7,29.96,West,261,0.0,0.0,89,0.00,,,0.00,WUHU216VWC,2013-10-16 22:41:00,
2013-10-16 18:46:00,54.8,51.6,29.96,West,261,0.0,0.0,89,0.00,,,0.00,WUHU216VWC,2013-10-16 22:46:00,
2013-10-16 18:51:00,54.6,51.4,29.95,West,261,0.0,1.0,89,0.00,,,0.00,WUHU216VWC,2013-10-16 22:51:00,
2013-10-16 18:56:00,54.5,51.6,29.95,West,261,0.0,0.0,90,0.00,,CLR,0.00,VWS V14.01,2013-10-16 22:56:00,
2013-10-16 19:01:00,54.4,51.5,29.96,West,261,0.0,0.0,90,0.00,,SCT030,0.00,VWS V14.01,2013-10-16 23:01:00,
2013-10-16 19:06:00,54.4,51.5,29.96,West,261,0.0,1.0,90,0.00,,,0.00,WUHU216VWC,2013-10-16 23:06:00,
2013-10-16 19:11:00,54.4,51.5,29.96,West,261,0.0,0.0,90,0.00,,SCT030,0.00,VWS V14.01,2013-10-16 23:11:00,
2013-10-16 19:16:00,54.3,51.4,29.96,West,261,0.0,0.0,90,0.00,,,0.00,WUHU216VWC,2013-10-16 23:16:00,
2013-10-16 19:21:00,54.2,51.3,29.95,West,261,0.0,0.0,90,0.00,,SCT030,0.00,VWS V14.01,2013-10-16 23:21:00,
2013-10-16 19:26:00,54.1,51.2,29.95,West,261,0.0,0.0,90,0.00,,SCT030,0.00,VWS V14.01,2013-10-16 23:26:00,
2013-10-16 19:31:00,53.9,51.0,29.95,West,261,0.0,0.0,90,0.00,,SCT030,0.00,VWS V14.01,2013-10-16 23:31:00,
2013-10-16 19:36:00,53.9,51.0,29.96,West,261,0.0,0.0,90,0.00,,SCT030,0.00,VWS V14.01,2013-10-16 23:36:00,
2013-10-16 19:41:00,53.8,51.2,29.95,West,261,0.0,0.0,91,0.00,,,0.00,WUHU216VWC,2013-10-16 23:41:00,
2013-10-16 19:46:00,53.6,51.0,29.95,West,261,0.0,0.0,91,0.00,,SCT030,0.00,VWS V14.01,2013-10-16 23:46:00,
2013-10-16 19:51:00,53.5,50.9,29.95,West,261,0.0,0.0,91,0.00,,SCT030,0.00,VWS V14.01,2013-10-16 23:51:00,
2013-10-16 19:56:00,53.4,50.8,29.95,West,261,0.0,0.0,91,0.00,,,0.00,WUHU216VWC,2013-10-16 23:56:00,
2013-10-16 20:01:00,53.3,50.7,29.95,West,261,0.0,0.0,91,0.00,,,0.00,WUHU216VWC,2013-10-17 00:01:00,
2013-10-16 20:06:00,53.2,50.6,29.94,West,261,0.0,0.0,91,0.00,,,0.00,WUHU216VWC,2013-10-17 00:06:00,
2013-10-16 20:11:00,53.0,50.4,29.94,West,261,0.0,0.0,91,0.00,,,0.00,WUHU216VWC,2013-10-17 00:11:00,
2013-10-16 20:16:00,52.8,50.3,29.94,West,261,0.0,0.0,91,0.00,,,0.00,WUHU216VWC,2013-10-17 00:16:00,
2013-10-16 20:21:00,52.6,50.3,29.94,West,261,0.0,0.0,92,0.00,,CLR,0.00,VWS V14.01,2013-10-17 00:21:00,
2013-10-16 20:26:00,52.4,50.1,29.94,West,261,0.0,0.0,92,0.00,,,0.00,WUHU216VWC,2013-10-17 00:26:00,
2013-10-16 20:31:00,52.3,50.0,29.94,West,261,0.0,0.0,92,0.00,,CLR,0.00,VWS V14.01,2013-10-17 00:31:00,
2013-10-16 20:36:00,52.1,49.8,29.94,West,261,0.0,0.0,92,0.00,,CLR,0.00,VWS V14.01,2013-10-17 00:36:00,
2013-10-16 20:41:00,51.9,49.7,29.93,West,261,0.0,0.0,92,0.00,,,0.00,WUHU216VWC,2013-10-17 00:41:00,
2013-10-16 20:46:00,51.6,49.4,29.93,West,261,0.0,0.0,92,0.00,,CLR,0.00,VWS V14.01,2013-10-17 00:46:00,
2013-10-16 20:51:00,51.3,49.1,29.93,West,261,0.0,0.0,92,0.00,,CLR,0.00,VWS V14.01,2013-10-17 00:51:00,
2013-10-16 20:56:00,51.1,49.2,29.93,West,261,0.0,0.0,93,0.00,,CLR,0.00,VWS V14.01,2013-10-17 00:56:00,
2013-10-16 21:01:00,51.0,49.0,29.93,West,261,0.0,0.0,93,0.00,,CLR,0.00,VWS V14.01,2013-10-17 01:01:00,
2013-10-16 21:06:00,50.8,48.9,29.93,West,261,0.0,0.0,93,0.00,,,0.00,WUHU216VWC,2013-10-17 01:06:00,
2013-10-16 21:11:00,50.6,48.7,29.93,West,261,0.0,0.0,93,0.00,,CLR,0.00,VWS V14.01,2013-10-17 01:11:00,
2013-10-16 21:16:00,50.3,48.4,29.92,West,261,0.0,0.0,93,0.00,,CLR,0.00,VWS V14.01,2013-10-17 01:16:00,
2013-10-16 21:21:00,50.1,48.2,29.93,West,261,0.0,0.0,93,0.00,,,0.00,WUHU216VWC,2013-10-17 01:21:00,
2013-10-16 21:26:00,50.0,48.1,29.93,West,261,0.0,0.0,93,0.00,,CLR,0.00,VWS V14.01,2013-10-17 01:26:00,
2013-10-16 21:31:00,49.9,48.0,29.93,West,261,0.0,0.0,93,0.00,,,0.00,WUHU216VWC,2013-10-17 01:31:00,
2013-10-16 21:36:00,49.7,47.8,29.93,West,261,0.0,0.0,93,0.00,,CLR,0.00,VWS V14.01,2013-10-17 01:36:00,
2013-10-16 21:41:00,49.5,47.6,29.93,West,261,0.0,0.0,93,0.00,,,0.00,WUHU216VWC,2013-10-17 01:41:00,
2013-10-16 21:46:00,49.3,47.4,29.93,West,261,0.0,0.0,93,0.00,,CLR,0.00,VWS V14.01,2013-10-17 01:46:00,
2013-10-16 21:51:00,49.0,47.1,29.93,West,261,0.0,0.0,93,0.00,,CLR,0.00,VWS V14.01,2013-10-17 01:51:00,
2013-10-16 21:56:00,48.9,47.0,29.93,West,261,0.0,0.0,93,0.00,,CLR,0.00,VWS V14.01,2013-10-17 01:56:00,
2013-10-16 22:01:00,48.7,47.1,29.93,West,261,0.0,0.0,94,0.00,,,0.00,WUHU216VWC,2013-10-17 02:01:00,
2013-10-16 22:06:00,48.5,46.9,29.93,West,261,0.0,0.0,94,0.00,,CLR,0.00,VWS V14.01,2013-10-17 02:06:00,
2013-10-16 22:11:00,48.4,46.8,29.92,West,261,0.0,0.0,94,0.00,,CLR,0.00,VWS V14.01,2013-10-17 02:11:00,
2013-10-16 22:16:00,48.2,46.6,29.92,West,261,0.0,0.0,94,0.00,,,0.00,WUHU216VWC,2013-10-17 02:16:00,
2013-10-16 22:21:00,47.9,46.3,29.92,West,261,0.0,0.0,94,0.00,,,0.00,WUHU216VWC,2013-10-17 02:21:00,
2013-10-16 22:26:00,47.8,46.2,29.92,West,261,0.0,0.0,94,0.00,,,0.00,WUHU216VWC,2013-10-17 02:26:00,
2013-10-16 22:31:00,47.7,46.1,29.92,West,261,0.0,0.0,94,0.00,,CLR,0.00,VWS V14.01,2013-10-17 02:31:00,
2013-10-16 22:36:00,47.6,46.0,29.92,West,261,0.0,0.0,94,0.00,,,0.00,WUHU216VWC,2013-10-17 02:36:00,
2013-10-16 22:41:00,47.5,45.9,29.91,West,261,0.0,0.0,94,0.00,,,0.00,WUHU216VWC,2013-10-17 02:41:00,
2013-10-16 22:46:00,47.3,45.7,29.91,West,261,0.0,0.0,94,0.00,,,0.00,WUHU216VWC,2013-10-17 02:46:00,
2013-10-16 22:50:00,47.2,45.6,29.91,West,261,0.0,0.0,94,0.00,,,0.00,WUHU216VWC,2013-10-17 02:50:00,
2013-10-16 22:55:00,47.2,45.6,29.91,West,261,0.0,0.0,94,0.00,,,0.00,WUHU216VWC,2013-10-17 02:55:00,
2013-10-16 23:01:00,47.1,45.7,29.92,West,261,0.0,0.0,95,0.00,,CLR,0.00,VWS V14.01,2013-10-17 03:01:00,
2013-10-16 23:06:00,47.0,45.7,29.92,West,261,0.0,0.0,95,0.00,,CLR,0.00,VWS V14.01,2013-10-17 03:06:00,
2013-10-16 23:11:00,46.9,45.3,29.92,West,261,0.0,0.0,94,0.00,,CLR,0.00,VWS V14.01,2013-10-17 03:11:00,
2013-10-16 23:16:00,46.8,45.2,29.92,West,261,0.0,0.0,94,0.00,,CLR,0.00,VWS V14.01,2013-10-17 03:16:00,
2013-10-16 23:21:00,46.5,44.9,29.91,West,261,0.0,0.0,94,0.00,,CLR,0.00,VWS V14.01,2013-10-17 03:21:00,
2013-10-16 23:26:00,46.2,44.6,29.91,West,261,0.0,0.0,94,0.00,,CLR,0.00,VWS V14.01,2013-10-17 03:26:00,
2013-10-16 23:30:00,46.1,44.5,29.91,West,261,0.0,0.0,94,0.00,,,0.00,WUHU216VWC,2013-10-17 03:30:00,
2013-10-16 23:35:00,46.0,44.4,29.91,West,261,0.0,0.0,94,0.00,,CLR,0.00,VWS V14.01,2013-10-17 03:35:00,
2013-10-16 23:40:00,45.9,44.5,29.91,West,261,0.0,0.0,95,0.00,,CLR,0.00,VWS V14.01,2013-10-17 03:40:00,
2013-10-16 23:45:00,45.9,44.6,29.91,West,261,0.0,0.0,95,0.00,,,0.00,WUHU216VWC,2013-10-17 03:45:00,
2013-10-16 23:50:00,46.0,44.7,29.90,West,261,0.0,0.0,95,0.00,,CLR,0.00,VWS V14.01,2013-10-17 03:50:00,
2013-10-16 23:55:00,46.1,44.8,29.90,West,261,0.0,0.0,95,0.00,,CLR,0.00,VWS V14.01,2013-10-17 03:55:00,